Terug naar catalogus

STARLINK-4523

ActiefCommunicatieVLEO
NORAD 53389·PAYLOAD·🇺🇸 United States

Gelanceerd Aug 10, 2022 vanaf Cape Canaveral Space Force Station

Loading…

Volgende Passages (komende 24 uur)

TLE

VersSource: CelesTrak SupGP

Epoch: Sep 15, 2026, 01:59 UTC

1 53389C 22097B   26258.08312500  .00041558  00000+0  11892-2 0  2583
2 53389  53.1612 347.2054 0001017  85.1118  81.6712 15.35374003    13

Volg STARLINK-4523 in realtime met AllMySat

Download on the App Store